| time (UTC) | temp F | wind direction | speed MPH | gust MPH | rain 1hr in | rain 24hr in | rain mn in | humidity % | barometer mb |
| 20260510093051 | 43 | 61 | 1.0 | 2.0 | 0.00 | 0.00 | 0.00 | 77 | 1015.2 |
| 20260510091558 | 44 | 0 | 0.0 | 4.0 | 0.00 | 0.00 | 0.00 | 76 | 1015.0 |
| 20260510084600 | 44 | 0 | 0.0 | 2.0 | 0.00 | 0.00 | 0.00 | 77 | 1015.1 |
| 20260510083059 | 44 | 0 | 0.0 | 2.0 | 0.00 | 0.00 | 0.00 | 76 | 1015.4 |
| 20260510081555 | 45 | 0 | 0.0 | 1.0 | 0.00 | 0.00 | 0.00 | 77 | 1015.5 |
| 20260510074553 | 47 | 0 | 1.0 | 4.0 | 0.00 | 0.00 | 0.00 | 78 | 1015.7 |
| 20260510073056 | 47 | 76 | 1.0 | 5.0 | 0.00 | 0.00 | 0.00 | 77 | 1015.6 |
| 20260510071555 | 47 | 71 | 1.0 | 4.0 | 0.00 | 0.00 | 0.00 | 73 | 1015.7 |
| 20260510070106 | 49 | 0 | 0.0 | 3.0 | 0.00 | 0.00 | 0.00 | 75 | 1015.7 |
| 20260510064607 | 49 | 74 | 1.0 | 3.0 | 0.00 | 0.00 | 0.00 | 77 | 1015.8 |
| 20260510063053 | 49 | 0 | 0.0 | 3.0 | 0.00 | 0.00 | 0.00 | 75 | 1015.8 |
| 20260510061554 | 50 | 0 | 0.0 | 3.0 | 0.00 | 0.00 | 0.00 | 73 | 1015.7 |
| 20260510060055 | 50 | 75 | 2.0 | 4.0 | 0.00 | 0.00 | 0.00 | 75 | 1015.9 |
| 20260510054554 | 51 | 0 | 0.0 | 2.0 | 0.00 | 0.00 | 0.00 | 72 | 1015.9 |
| 20260510053055 | 52 | 0 | 0.0 | 1.0 | 0.00 | 0.00 | 0.00 | 71 | 1015.8 |
| 20260510051601 | 52 | 0 | 0.0 | 4.0 | 0.00 | 0.00 | 0.00 | 71 | 1015.8 |
| 20260510050055 | 53 | 71 | 1.0 | 3.0 | 0.00 | 0.00 | 0.00 | 69 | 1015.8 |
| 20260510044555 | 54 | 72 | 1.0 | 4.0 | 0.00 | 0.00 | 0.00 | 66 | 1015.8 |
| 20260510043051 | 56 | 0 | 0.0 | 3.0 | 0.00 | 0.00 | 0.00 | 67 | 1015.7 |
| 20260510041604 | 57 | 65 | 2.0 | 4.0 | 0.00 | 0.00 | 0.00 | 63 | 1015.6 |
| 20260510040056 | 59 | 0 | 0.0 | 3.0 | 0.00 | 0.00 | 0.00 | 61 | 1015.4 |
| 20260510034558 | 62 | 0 | 1.0 | 3.0 | 0.00 | 0.00 | 0.00 | 58 | 1015.3 |
| 20260510033053 | 63 | 0 | 0.0 | 1.0 | 0.00 | 0.00 | 0.00 | 60 | 1015.0 |
| 20260510031557 | 65 | 0 | 0.0 | 1.0 | 0.00 | 0.00 | 0.00 | 54 | 1014.9 |
| 20260510024554 | 69 | 0 | 0.0 | 4.0 | 0.00 | 0.00 | 0.00 | 52 | 1014.4 |
| 20260510023050 | 71 | 230 | 2.0 | 5.0 | 0.00 | 0.00 | 0.00 | 48 | 1014.4 |
| 20260510021551 | 74 | 273 | 1.0 | 3.0 | 0.00 | 0.00 | 0.00 | 45 | 1014.4 |
| 20260510020052 | 77 | 0 | 2.0 | 6.0 | 0.00 | 0.00 | 0.00 | 42 | 1014.3 |
| 20260510014556 | 79 | 295 | 4.0 | 7.0 | 0.00 | 0.00 | 0.00 | 39 | 1014.1 |
| 20260510013101 | 81 | 257 | 2.0 | 8.0 | 0.00 | 0.00 | 0.00 | 38 | 1014.1 |
| 20260510011552 | 82 | 249 | 3.0 | 9.0 | 0.00 | 0.00 | 0.00 | 37 | 1014.2 |
| 20260510010053 | 82 | 246 | 5.0 | 9.0 | 0.00 | 0.00 | 0.00 | 37 | 1014.2 |
| 20260510004550 | 83 | 246 | 4.0 | 10.0 | 0.00 | 0.00 | 0.00 | 36 | 1014.0 |
| 20260510003058 | 84 | 267 | 4.0 | 9.0 | 0.00 | 0.00 | 0.00 | 35 | 1014.0 |
| 20260510001601 | 83 | 255 | 4.0 | 10.0 | 0.00 | 0.00 | 0.00 | 35 | 1014.1 |
| 20260510000111 | 83 | 205 | 4.0 | 11.0 | 0.00 | 0.00 | 0.00 | 36 | 1013.9 |
| 20260509234621 | 83 | 251 | 4.0 | 12.0 | 0.00 | 0.00 | 0.00 | 35 | 1014.0 |
| 20260509233058 | 83 | 281 | 6.0 | 12.0 | 0.00 | 0.00 | 0.00 | 35 | 1013.8 |
| 20260509231611 | 83 | 246 | 6.0 | 14.0 | 0.00 | 0.00 | 0.00 | 35 | 1013.9 |
| 20260509230107 | 84 | 288 | 7.0 | 14.0 | 0.00 | 0.00 | 0.00 | 34 | 1013.9 |
| 20260509224556 | 85 | 248 | 6.0 | 12.0 | 0.00 | 0.00 | 0.00 | 34 | 1013.8 |
| 20260509223052 | 85 | 269 | 8.0 | 15.0 | 0.00 | 0.00 | 0.00 | 33 | 1014.0 |
| 20260509221554 | 86 | 272 | 6.0 | 13.0 | 0.00 | 0.00 | 0.00 | 30 | 1014.0 |
| 20260509220052 | 86 | 286 | 7.0 | 12.0 | 0.00 | 0.00 | 0.00 | 30 | 1014.1 |
| 20260509214556 | 87 | 255 | 8.0 | 16.0 | 0.00 | 0.00 | 0.00 | 27 | 1014.1 |
| 20260509213055 | 87 | 254 | 6.0 | 12.0 | 0.00 | 0.00 | 0.00 | 26 | 1014.4 |
| 20260509211601 | 87 | 243 | 5.0 | 12.0 | 0.00 | 0.00 | 0.00 | 27 | 1014.4 |
| 20260509210107 | 86 | 257 | 7.0 | 13.0 | 0.00 | 0.00 | 0.00 | 25 | 1014.4 |
| 20260509204554 | 87 | 252 | 7.0 | 12.0 | 0.00 | 0.00 | 0.00 | 28 | 1014.5 |
| 20260509203056 | 87 | 239 | 3.0 | 10.0 | 0.00 | 0.00 | 0.00 | 24 | 1014.7 |
| 20260509201559 | 86 | 259 | 6.0 | 13.0 | 0.00 | 0.00 | 0.00 | 21 | 1014.9 |
| 20260509194556 | 86 | 213 | 6.0 | 14.0 | 0.00 | 0.00 | 0.00 | 24 | 1015.0 |
| 20260509193057 | 85 | 255 | 5.0 | 11.0 | 0.00 | 0.00 | 0.00 | 19 | 1015.2 |
| 20260509191556 | 85 | 279 | 5.0 | 12.0 | 0.00 | 0.00 | 0.00 | 24 | 1015.2 |
| 20260509190111 | 84 | 275 | 5.0 | 11.0 | 0.00 | 0.00 | 0.00 | 26 | 1015.3 |
| 20260509184557 | 83 | 252 | 5.0 | 10.0 | 0.00 | 0.00 | 0.00 | 25 | 1015.5 |
| 20260509183059 | 83 | 216 | 4.0 | 11.0 | 0.00 | 0.00 | 0.00 | 28 | 1015.5 |
| 20260509181553 | 83 | 246 | 5.0 | 9.0 | 0.00 | 0.00 | 0.00 | 26 | 1015.5 |
| 20260509174555 | 82 | 211 | 5.0 | 11.0 | 0.00 | 0.00 | 0.00 | 27 | 1015.7 |
| 20260509173056 | 83 | 246 | 4.0 | 8.0 | 0.00 | 0.00 | 0.00 | 28 | 1015.8 |
| 20260509171555 | 82 | 225 | 3.0 | 8.0 | 0.00 | 0.00 | 0.00 | 28 | 1015.8 |
| 20260509170100 | 83 | 218 | 2.0 | 8.0 | 0.00 | 0.00 | 0.00 | 30 | 1015.8 |
| 20260509164551 | 83 | 238 | 3.0 | 8.0 | 0.00 | 0.00 | 0.00 | 32 | 1015.7 |
| 20260509163103 | 82 | 223 | 1.0 | 6.0 | 0.00 | 0.00 | 0.00 | 31 | 1015.7 |
| 20260509161557 | 79 | 217 | 4.0 | 8.0 | 0.00 | 0.00 | 0.00 | 35 | 1015.7 |
| 20260509160055 | 76 | 218 | 0.0 | 5.0 | 0.00 | 0.00 | 0.00 | 42 | 1015.7 |
| 20260509154606 | 74 | 0 | 0.0 | 1.0 | 0.00 | 0.00 | 0.00 | 46 | 1015.8 |
| 20260509153056 | 70 | 0 | 0.0 | 2.0 | 0.00 | 0.00 | 0.00 | 49 | 1015.7 |
| 20260509151554 | 65 | 79 | 0.0 | 2.0 | 0.00 | 0.00 | 0.00 | 56 | 1015.8 |
| 20260509150108 | 60 | 0 | 0.0 | 1.0 | 0.00 | 0.00 | 0.00 | 62 | 1015.9 |
| 20260509144602 | 56 | 0 | 0.0 | 3.0 | 0.00 | 0.00 | 0.00 | 69 | 1015.9 |
| 20260509143105 | 51 | 0 | 0.0 | 1.0 | 0.00 | 0.00 | 0.00 | 79 | 1015.9 |
| 20260509141555 | 48 | 78 | 1.0 | 4.0 | 0.00 | 0.00 | 0.00 | 83 | 1016.1 |
| 20260509140104 | 44 | 78 | 1.0 | 5.0 | 0.00 | 0.00 | 0.00 | 86 | 1015.8 |
| 20260509134553 | 41 | 0 | 0.0 | 3.0 | 0.00 | 0.00 | 0.00 | 88 | 1015.8 |
| 20260509133101 | 39 | 0 | 0.0 | 3.0 | 0.00 | 0.00 | 0.00 | 87 | 1015.8 |
| 20260509131549 | 38 | 74 | 1.0 | 5.0 | 0.00 | 0.00 | 0.00 | 87 | 1015.8 |
| 20260509130056 | 38 | 82 | 2.0 | 4.0 | 0.00 | 0.00 | 0.00 | 86 | 1015.7 |
| 20260509124558 | 38 | 0 | 0.0 | 0.0 | 0.00 | 0.00 | 0.00 | 85 | 1015.6 |
| 20260509123101 | 39 | 0 | 0.0 | 1.0 | 0.00 | 0.00 | 0.00 | 85 | 1015.7 |
| 20260509121600 | 40 | 0 | 0.0 | 3.0 | 0.00 | 0.00 | 0.00 | 86 | 1015.7 |
| 20260509120053 | 40 | 0 | 0.0 | 3.0 | 0.00 | 0.00 | 0.00 | 87 | 1015.6 |
| 20260509114603 | 39 | 0 | 0.0 | 1.0 | 0.00 | 0.00 | 0.00 | 85 | 1015.6 |
| 20260509113059 | 41 | 0 | 0.0 | 2.0 | 0.00 | 0.00 | 0.00 | 85 | 1015.6 |
| 20260509111551 | 42 | 80 | 0.0 | 3.0 | 0.00 | 0.00 | 0.00 | 86 | 1015.8 |
| 20260509110245 | 42 | 0 | 1.0 | 4.0 | 0.00 | 0.00 | 0.00 | 88 | 1015.7 |
| 20260509104552 | 42 | 76 | 1.0 | 4.0 | 0.00 | 0.00 | 0.00 | 89 | 1015.8 |
| 20260509103051 | 40 | 73 | 1.0 | 3.0 | 0.00 | 0.00 | 0.00 | 84 | 1015.9 |
| 20260509101811 | 41 | 0 | 0.0 | 0.0 | 0.00 | 0.00 | 0.00 | 84 | 1016.0 |
| 20260509100057 | 42 | 0 | 0.0 | 0.0 | 0.00 | 0.00 | 0.00 | 84 | 1016.0 |
| 20260509094634 | 43 | 0 | 0.0 | 1.0 | 0.00 | 0.00 | 0.00 | 83 | 1016.1 |